T 1997 June 30.94523 TT Marsden q 0.0058413 (2000.0) P Q Peri. 85.15451 +0.09933234 -0.99495390 Node 1.17831 -0.93467510 -0.09816888 e 1.0 Incl. 136.57331 +0.34134374 +0.02072716 >From 15 observations 1997 June 29-30.
m1 = 16 + 5 logΔ + 10.0 log r